Tiempo cada hora Mungaoli

Hoy, 22 Octubre, Jueves

Tiempo Temperatura Precipitaciones Viento Presión Humedad
00:00 +24°C° 0 mm 0 mps 721 mmHg 29%
01:00 +23°C° 0 mm 0 mps 721 mmHg 29%
02:00 +23°C° 0 mm 0 mps 720 mmHg 30%
03:00 +22°C° 0 mm 0 mps 720 mmHg 30%
04:00 +22°C° 0 mm 0 mps 720 mmHg 30%
05:00 +22°C° 0 mm 0 mps 720 mmHg 30%
06:00 +23°C° 0 mm 0 mps 721 mmHg 29%
07:00 +25°C° 0 mm 0 mps 722 mmHg 28%
08:00 +26°C° 0 mm 0 mps 722 mmHg 26%
09:00 +28°C° 0 mm 0 mps 722 mmHg 24%
10:00 +32°C° 0 mm 1 mps 722 mmHg 21%
11:00 +34°C° 0 mm 1 mps 722 mmHg 19%
12:00 +34°C° 0 mm 1 mps 722 mmHg 19%
13:00 +34°C° 0 mm 1 mps 721 mmHg 19%
14:00 +35°C° 0 mm 1 mps 720 mmHg 19%
15:00 +33°C° 0 mm 1 mps 720 mmHg 23%
16:00 +32°C° 0 mm 2 mps 720 mmHg 27%
17:00 +31°C° 0 mm 2 mps 720 mmHg 31%
18:00 +30°C° 0 mm 2 mps 720 mmHg 31%
19:00 +30°C° 0 mm 1 mps 721 mmHg 31%
20:00 +29°C° 0 mm 1 mps 721 mmHg 31%
21:00 +28°C° 0 mm 1 mps 721 mmHg 32%
22:00 +28°C° 0 mm 1 mps 721 mmHg 33%
23:00 +27°C° 0 mm 1 mps 721 mmHg 34%

Mañana, 23 Octubre, Viernes

Tiempo Temperatura Precipitaciones Viento Presión Humedad
00:00 +27°C° 0 mm 1 mps 721 mmHg 35%
01:00 +27°C° 0 mm 1 mps 720 mmHg 36%
02:00 +27°C° 0 mm 1 mps 720 mmHg 36%
03:00 +26°C° 0 mm 1 mps 720 mmHg 38%
04:00 +25°C° 0 mm 1 mps 720 mmHg 39%
05:00 +25°C° 0 mm 1 mps 720 mmHg 41%
06:00 +26°C° 0 mm 1 mps 721 mmHg 40%
07:00 +27°C° 0 mm 1 mps 721 mmHg 39%
08:00 +29°C° 0 mm 1 mps 722 mmHg 39%
09:00 +30°C° 0 mm 1 mps 722 mmHg 34%
10:00 +32°C° 0 mm 1 mps 722 mmHg 30%
11:00 +33°C° 0 mm 1 mps 722 mmHg 26%
12:00 +34°C° 0 mm 1 mps 721 mmHg 24%
13:00 +34°C° 0 mm 1 mps 721 mmHg 22%
14:00 +36°C° 0 mm 2 mps 720 mmHg 20%
15:00 +34°C° 0 mm 2 mps 720 mmHg 23%
16:00 +32°C° 0 mm 2 mps 720 mmHg 26%
17:00 +31°C° 0 mm 2 mps 720 mmHg 28%
18:00 +30°C° 0 mm 1 mps 720 mmHg 29%
19:00 +29°C° 0 mm 1 mps 721 mmHg 30%
20:00 +28°C° 0 mm 1 mps 721 mmHg 30%
21:00 +27°C° 0 mm 1 mps 721 mmHg 32%
22:00 +27°C° 0 mm 1 mps 721 mmHg 33%
23:00 +26°C° 0 mm 1 mps 721 mmHg 35%

Pasado mañana, 24 Octubre, Sábado

Tiempo Temperatura Precipitaciones Viento Presión Humedad
00:00 +26°C° 0 mm 2 mps 721 mmHg 36%
01:00 +25°C° 0 mm 2 mps 721 mmHg 38%
02:00 +25°C° 0 mm 2 mps 720 mmHg 39%
03:00 +24°C° 0 mm 2 mps 720 mmHg 41%
04:00 +24°C° 0 mm 2 mps 720 mmHg 42%
05:00 +24°C° 0 mm 2 mps 720 mmHg 44%
06:00 +25°C° 0 mm 2 mps 721 mmHg 42%
07:00 +26°C° 0 mm 1 mps 722 mmHg 40%
08:00 +28°C° 0 mm 1 mps 722 mmHg 38%
09:00 +30°C° 0 mm 1 mps 722 mmHg 34%
10:00 +32°C° 0 mm 1 mps 722 mmHg 30%
11:00 +33°C° 0 mm 1 mps 722 mmHg 25%
12:00 +34°C° 0 mm 1 mps 722 mmHg 23%
13:00 +35°C° 0 mm 1 mps 721 mmHg 21%
14:00 +33°C° 0 mm 0 mps 721 mmHg 19%
15:00 +34°C° 0 mm 1 mps 721 mmHg 21%
16:00 +32°C° 0 mm 1 mps 721 mmHg 24%
17:00 +31°C° 0 mm 1 mps 721 mmHg 26%
18:00 +30°C° 0 mm 1 mps 721 mmHg 27%
19:00 +28°C° 0 mm 1 mps 722 mmHg 27%
20:00 +27°C° 0 mm 1 mps 722 mmHg 27%
21:00 +27°C° 0 mm 1 mps 722 mmHg 27%
22:00 +26°C° 0 mm 1 mps 722 mmHg 27%
23:00 +25°C° 0 mm 1 mps 723 mmHg 26%

, 25 Octubre, Domingo

Tiempo Temperatura Precipitaciones Viento Presión Humedad
00:00 +25°C° 0 mm 1 mps 723 mmHg 28%
01:00 +24°C° 0 mm 1 mps 722 mmHg 30%
02:00 +22°C° 0 mm 0 mps 722 mmHg 32%
03:00 +21°C° 0 mm 0 mps 722 mmHg 33%
04:00 +21°C° 0 mm 0 mps 722 mmHg 33%
05:00 +21°C° 0 mm 0 mps 722 mmHg 34%
06:00 +23°C° 0 mm 0 mps 723 mmHg 32%
07:00 +24°C° 0 mm 0 mps 724 mmHg 30%
08:00 +28°C° 0 mm 1 mps 725 mmHg 27%
09:00 +30°C° 0 mm 1 mps 725 mmHg 23%
10:00 +32°C° 0 mm 1 mps 725 mmHg 19%
11:00 +35°C° 0 mm 2 mps 725 mmHg 15%
12:00 +35°C° 0 mm 2 mps 724 mmHg 15%
13:00 +35°C° 0 mm 3 mps 724 mmHg 14%
14:00 +36°C° 0 mm 3 mps 723 mmHg 13%
15:00 +34°C° 0 mm 3 mps 723 mmHg 16%
16:00 +31°C° 0 mm 3 mps 723 mmHg 19%
17:00 +30°C° 0 mm 2 mps 722 mmHg 22%
18:00 +28°C° 0 mm 2 mps 723 mmHg 23%
19:00 +27°C° 0 mm 2 mps 723 mmHg 23%
20:00 +26°C° 0 mm 2 mps 723 mmHg 23%
21:00 +25°C° 0 mm 1 mps 724 mmHg 23%
22:00 +25°C° 0 mm 1 mps 724 mmHg 23%
23:00 +25°C° 0 mm 1 mps 724 mmHg 23%

25 Octubre, Domingo

Tiempo Temperatura Precipitaciones Viento Presión Humedad
00:00 +25°C° 0 mm 1 mps 723 mmHg 28%
01:00 +24°C° 0 mm 1 mps 722 mmHg 30%
02:00 +22°C° 0 mm 0 mps 722 mmHg 32%
03:00 +21°C° 0 mm 0 mps 722 mmHg 33%
04:00 +21°C° 0 mm 0 mps 722 mmHg 33%
05:00 +21°C° 0 mm 0 mps 722 mmHg 34%
06:00 +23°C° 0 mm 0 mps 723 mmHg 32%
07:00 +24°C° 0 mm 0 mps 724 mmHg 30%
08:00 +28°C° 0 mm 1 mps 725 mmHg 27%
09:00 +30°C° 0 mm 1 mps 725 mmHg 23%
10:00 +32°C° 0 mm 1 mps 725 mmHg 19%
11:00 +35°C° 0 mm 2 mps 725 mmHg 15%
12:00 +35°C° 0 mm 2 mps 724 mmHg 15%
13:00 +35°C° 0 mm 3 mps 724 mmHg 14%
14:00 +36°C° 0 mm 3 mps 723 mmHg 13%
15:00 +34°C° 0 mm 3 mps 723 mmHg 16%
16:00 +31°C° 0 mm 3 mps 723 mmHg 19%
17:00 +30°C° 0 mm 2 mps 722 mmHg 22%
18:00 +28°C° 0 mm 2 mps 723 mmHg 23%
19:00 +27°C° 0 mm 2 mps 723 mmHg 23%
20:00 +26°C° 0 mm 2 mps 723 mmHg 23%
21:00 +25°C° 0 mm 1 mps 724 mmHg 23%
22:00 +25°C° 0 mm 1 mps 724 mmHg 23%
23:00 +25°C° 0 mm 1 mps 724 mmHg 23%

26 Octubre, Lunes

Tiempo Temperatura Precipitaciones Viento Presión Humedad
00:00 +24°C° 0 mm 1 mps 723 mmHg 23%
01:00 +24°C° 0 mm 1 mps 723 mmHg 23%
02:00 +23°C° 0 mm 1 mps 723 mmHg 24%
03:00 +23°C° 0 mm 1 mps 723 mmHg 24%
04:00 +23°C° 0 mm 1 mps 723 mmHg 24%
05:00 +22°C° 0 mm 1 mps 723 mmHg 24%
06:00 +24°C° 0 mm 1 mps 724 mmHg 24%
07:00 +26°C° 0 mm 1 mps 725 mmHg 23%
08:00 +27°C° 0 mm 2 mps 725 mmHg 23%
09:00 +29°C° 0 mm 2 mps 725 mmHg 19%
10:00 +32°C° 0 mm 2 mps 725 mmHg 15%
11:00 +35°C° 0 mm 2 mps 725 mmHg 12%
12:00 +35°C° 0 mm 3 mps 725 mmHg 12%
13:00 +35°C° 0 mm 4 mps 724 mmHg 11%
14:00 +36°C° 0 mm 4 mps 723 mmHg 11%
15:00 +34°C° 0 mm 3 mps 723 mmHg 14%
16:00 +31°C° 0 mm 3 mps 723 mmHg 17%
17:00 +29°C° 0 mm 2 mps 723 mmHg 20%
18:00 +28°C° 0 mm 2 mps 723 mmHg 20%
19:00 +26°C° 0 mm 2 mps 723 mmHg 20%
20:00 +25°C° 0 mm 2 mps 724 mmHg 20%
21:00 +25°C° 0 mm 1 mps 724 mmHg 20%
22:00 +24°C° 0 mm 1 mps 724 mmHg 20%
23:00 +24°C° 0 mm 1 mps 723 mmHg 20%

27 Octubre, Martes

Tiempo Temperatura Precipitaciones Viento Presión Humedad
00:00 +23°C° 0 mm 1 mps 723 mmHg 21%
01:00 +23°C° 0 mm 1 mps 723 mmHg 22%
02:00 +22°C° 0 mm 1 mps 723 mmHg 23%
03:00 +22°C° 0 mm 1 mps 723 mmHg 23%
04:00 +22°C° 0 mm 1 mps 723 mmHg 24%
05:00 +20°C° 0 mm 2 mps 723 mmHg 24%
06:00 +23°C° 0 mm 2 mps 724 mmHg 24%
07:00 +25°C° 0 mm 2 mps 724 mmHg 23%
08:00 +26°C° 0 mm 2 mps 725 mmHg 23%
09:00 +28°C° 0 mm 2 mps 725 mmHg 20%
10:00 +31°C° 0 mm 2 mps 725 mmHg 17%
11:00 +34°C° 0 mm 2 mps 725 mmHg 14%
12:00 +34°C° 0 mm 2 mps 724 mmHg 13%
13:00 +35°C° 0 mm 3 mps 724 mmHg 12%
14:00 +36°C° 0 mm 3 mps 723 mmHg 12%
15:00 +34°C° 0 mm 3 mps 723 mmHg 14%
16:00 +31°C° 0 mm 2 mps 723 mmHg 17%
17:00 +29°C° 0 mm 2 mps 723 mmHg 20%
18:00 +27°C° 0 mm 2 mps 723 mmHg 20%
19:00 +26°C° 0 mm 1 mps 723 mmHg 20%
20:00 +25°C° 0 mm 1 mps 723 mmHg 20%
21:00 +24°C° 0 mm 1 mps 723 mmHg 20%
22:00 +24°C° 0 mm 1 mps 723 mmHg 21%
23:00 +23°C° 0 mm 1 mps 723 mmHg 21%
Mostrar más

Necesitamos Su Consentimiento

Meteoprog y nuestros Proveedores de Servicios pueden almacenar y acceder a sus datos personales como cookies, identificadores de dispositivo u otras tecnologías similares de su dispositivo y procesar dichos datos para personalizar contenido y anuncios, además de ofrecer funciones de redes sociales y analizar el tráfico.

  • Almacenar y/o acceder a información en su dispositivo

    Se puede almacenar o acceder a cookies, identificadores de dispositivo u otra información de su dispositivo para los fines anteriormente indicados.

  • Anuncios y contenido personalizados, medición de anuncios y contenido, percepciones del público, y desarrollo de productos

    Los anuncios y el contenido pueden personalizarse en base a su perfil. Se pueden añadir más datos para personalizar mejor los anuncios y contenidos. Se puede medir el rendimiento de los anuncios y contenidos. Se puede obtener la percepción sobre el público que ha visto los anuncios y contenidos. Dichos datos pueden usarse para desarrollar o mejorar la experiencia del usuario, sistemas y software.

Al hacer clic en ‘Estoy De Acuerdo’ usted permitirá el uso de las cookies, identificadores de dispositivo, balizas web u otras tecnologías similares indicadas. Su configuración puede cambiarse desde el navegador de su dispositivo.

Para ciertos fines, los intereses legítimos pueden ser considerados por encima del consentimiento. Puede leer más sobre ello en nuestra Política de Privacidad y Cookies.